Location: Serin Observatory
(40.5200°N, 74.4500°W)
Time: 15:54:25

SL-8 R/B - Visible Passes

Search period start: 24 October 2016 00:00
Search period end: 03 November 2016 00:00
Orbit: 657 x 668 km, 48.4° (Epoch: 23 October)

Date Brightness Start Highest point End Pass type
(mag) Time Alt. Az. Time Alt. Az. Time Alt. Az.
01 Nov 5.9 10:19:39 10° S 10:23:35 25° SE 10:27:31 10° E visible
02 Nov 6.7 09:11:42 10° SE 09:12:40 11° SE 09:13:38 10° ESE visible
02 Nov 4.4 10:49:42 10° SW 10:54:26 57° SE 10:59:11 10° ENE visible
